Time,TemperatureF,DewpointF,PressureIn,WindDirection,WindDirectionDegrees,WindSpeedMPH,WindSpeedGustMPH,Humidity,HourlyPrecipIn,Conditions,Clouds,dailyrainin,SoftwareType,DateUTC
2013-05-04 00:01:00,62.7,31.6,30.25,ESE,119,3.0,4.0,31,0.00,,,0.00,Wunderground v.1.15,2013-05-04 04:01:00,
2013-05-04 00:02:00,62.8,31.7,30.25,ESE,105,3.0,4.0,31,0.00,,,0.00,Wunderground v.1.15,2013-05-04 04:02:00,
2013-05-04 00:05:00,62.7,31.6,30.25,ESE,115,3.0,5.0,31,0.00,,,0.00,Wunderground v.1.15,2013-05-04 04:05:00,
2013-05-04 00:11:00,62.6,32.3,30.25,East,82,3.0,3.0,32,0.00,,,0.00,Wunderground v.1.15,2013-05-04 04:11:00,
2013-05-04 00:16:00,62.4,32.1,30.25,ESE,112,3.0,5.0,32,0.00,,,0.00,Wunderground v.1.15,2013-05-04 04:16:00,
2013-05-04 00:22:00,62.4,31.3,30.25,ESE,110,4.0,5.0,31,0.00,,,0.00,Wunderground v.1.15,2013-05-04 04:22:00,
2013-05-04 00:27:00,62.3,31.3,30.25,East,82,4.0,6.0,31,0.00,,,0.00,Wunderground v.1.15,2013-05-04 04:27:00,
2013-05-04 00:33:00,62.2,31.2,30.25,ESE,115,4.0,4.0,31,0.00,,,0.00,Wunderground v.1.15,2013-05-04 04:33:00,
2013-05-04 00:39:00,61.9,31.7,30.25,East,84,3.0,4.0,32,0.00,,,0.00,Wunderground v.1.15,2013-05-04 04:39:00,
2013-05-04 00:44:00,61.8,30.8,30.25,ESE,106,3.0,5.0,31,0.00,,,0.00,Wunderground v.1.15,2013-05-04 04:44:00,
2013-05-04 00:50:00,61.6,31.4,30.25,ESE,105,3.0,5.0,32,0.00,,,0.00,Wunderground v.1.15,2013-05-04 04:50:00,
2013-05-04 00:55:00,61.3,31.9,30.25,East,84,2.0,3.0,33,0.00,,,0.00,Wunderground v.1.15,2013-05-04 04:55:00,
2013-05-04 01:00:00,61.0,31.7,30.25,East,86,2.0,3.0,33,0.00,,,0.00,Wunderground v.1.15,2013-05-04 05:00:00,
2013-05-04 01:06:00,60.7,31.4,30.25,East,98,2.0,4.0,33,0.00,,,0.00,Wunderground v.1.15,2013-05-04 05:06:00,
2013-05-04 01:12:00,60.3,31.8,30.25,SE,129,1.0,2.0,34,0.00,,,0.00,Wunderground v.1.15,2013-05-04 05:12:00,
2013-05-04 01:17:00,60.0,32.2,30.25,East,86,1.0,2.0,35,0.00,,,0.00,Wunderground v.1.15,2013-05-04 05:17:00,
2013-05-04 01:23:00,59.5,31.8,30.25,ESE,105,0.0,1.0,35,0.00,,,0.00,Wunderground v.1.15,2013-05-04 05:23:00,
2013-05-04 01:29:00,59.1,32.1,30.25,East,97,0.0,1.0,36,0.00,,,0.00,Wunderground v.1.15,2013-05-04 05:29:00,
2013-05-04 01:34:00,58.5,31.6,30.25,WNW,285,0.0,1.0,36,0.00,,,0.00,Wunderground v.1.15,2013-05-04 05:34:00,
2013-05-04 01:40:00,58.2,32.7,30.25,ENE,61,0.0,0.0,38,0.00,,,0.00,Wunderground v.1.15,2013-05-04 05:40:00,
2013-05-04 01:45:00,57.3,31.9,30.25,ENE,61,0.0,0.0,38,0.00,,,0.00,Wunderground v.1.15,2013-05-04 05:45:00,
2013-05-04 01:51:00,56.6,32.5,30.25,NE,39,0.0,0.0,40,0.00,,,0.00,Wunderground v.1.15,2013-05-04 05:51:00,
2013-05-04 01:56:00,56.4,33.6,30.25,East,101,0.0,1.0,42,0.00,,,0.00,Wunderground v.1.15,2013-05-04 05:56:00,
2013-05-04 02:01:00,56.0,33.2,30.25,ESE,103,0.0,0.0,42,0.00,,,0.00,Wunderground v.1.15,2013-05-04 06:01:00,
2013-05-04 02:07:00,55.7,33.5,30.25,WSW,242,0.0,1.0,43,0.00,,,0.00,Wunderground v.1.15,2013-05-04 06:07:00,
2013-05-04 02:12:00,55.8,33.0,30.25,East,83,1.0,2.0,42,0.00,,,0.00,Wunderground v.1.15,2013-05-04 06:12:00,
2013-05-04 02:17:00,55.9,33.7,30.25,WSW,256,1.0,2.0,43,0.00,,,0.00,Wunderground v.1.15,2013-05-04 06:17:00,
2013-05-04 02:23:00,55.4,33.3,30.25,SSW,195,0.0,1.0,43,0.00,,,0.00,Wunderground v.1.15,2013-05-04 06:23:00,
2013-05-04 02:28:00,55.3,33.2,30.25,East,79,0.0,1.0,43,0.00,,,0.00,Wunderground v.1.15,2013-05-04 06:28:00,
2013-05-04 02:34:00,56.0,33.2,30.25,ESE,115,0.0,1.0,42,0.00,,,0.00,Wunderground v.1.15,2013-05-04 06:34:00,
2013-05-04 02:39:00,55.9,33.1,30.25,East,93,0.0,1.0,42,0.00,,,0.00,Wunderground v.1.15,2013-05-04 06:39:00,
2013-05-04 02:45:00,55.9,32.5,30.25,ESE,105,0.0,0.0,41,0.00,,,0.00,Wunderground v.1.15,2013-05-04 06:45:00,
2013-05-04 02:51:00,55.4,33.3,30.25,ESE,105,0.0,0.0,43,0.00,,,0.00,Wunderground v.1.15,2013-05-04 06:51:00,
2013-05-04 02:56:00,54.9,33.9,30.25,ESE,105,0.0,1.0,45,0.00,,,0.00,Wunderground v.1.15,2013-05-04 06:56:00,
2013-05-04 03:02:00,54.3,33.9,30.25,ESE,106,0.0,0.0,46,0.00,,,0.00,Wunderground v.1.15,2013-05-04 07:02:00,
2013-05-04 03:08:00,53.6,33.8,30.25,ESE,105,0.0,0.0,47,0.00,,,0.00,Wunderground v.1.15,2013-05-04 07:08:00,
2013-05-04 03:13:00,53.0,33.8,30.25,ESE,106,0.0,0.0,48,0.00,,,0.00,Wunderground v.1.15,2013-05-04 07:13:00,
2013-05-04 03:19:00,52.7,34.6,30.25,ESE,112,0.0,0.0,50,0.00,,,0.00,Wunderground v.1.15,2013-05-04 07:19:00,
2013-05-04 03:24:00,52.2,34.1,30.25,ESE,111,0.0,0.0,50,0.00,,,0.00,Wunderground v.1.15,2013-05-04 07:24:00,
2013-05-04 03:29:00,51.9,34.3,30.25,ESE,112,0.0,0.0,51,0.00,,,0.00,Wunderground v.1.15,2013-05-04 07:29:00,
2013-05-04 03:35:00,51.6,34.5,30.25,ESE,112,0.0,0.0,52,0.00,,,0.00,Wunderground v.1.15,2013-05-04 07:35:00,
2013-05-04 03:40:00,51.4,34.3,30.25,ESE,112,0.0,0.0,52,0.00,,,0.00,Wunderground v.1.15,2013-05-04 07:40:00,
2013-05-04 03:46:00,51.0,34.9,30.25,ESE,112,0.0,0.0,54,0.00,,,0.00,Wunderground v.1.15,2013-05-04 07:46:00,
2013-05-04 03:51:00,50.5,34.9,30.25,ESE,112,0.0,0.0,55,0.00,,,0.00,Wunderground v.1.15,2013-05-04 07:51:00,
2013-05-04 03:57:00,50.3,34.7,30.26,ESE,111,0.0,0.0,55,0.00,,,0.00,Wunderground v.1.15,2013-05-04 07:57:00,
2013-05-04 04:02:00,50.1,34.5,30.25,ESE,112,0.0,0.0,55,0.00,,,0.00,Wunderground v.1.15,2013-05-04 08:02:00,
2013-05-04 04:08:00,50.2,34.2,30.26,ESE,111,0.0,0.0,54,0.00,,,0.00,Wunderground v.1.15,2013-05-04 08:08:00,
2013-05-04 04:13:00,50.5,34.5,30.26,ESE,112,0.0,0.0,54,0.00,,,0.00,Wunderground v.1.15,2013-05-04 08:13:00,
2013-05-04 04:19:00,50.7,34.2,30.26,ESE,111,0.0,0.0,53,0.00,,,0.00,Wunderground v.1.15,2013-05-04 08:19:00,
2013-05-04 04:24:00,50.7,34.6,30.26,ESE,112,0.0,0.0,54,0.00,,,0.00,Wunderground v.1.15,2013-05-04 08:24:00,
2013-05-04 04:29:00,50.5,34.9,30.26,ESE,112,0.0,0.0,55,0.00,,,0.00,Wunderground v.1.15,2013-05-04 08:29:00,
2013-05-04 04:35:00,50.2,34.2,30.26,ESE,112,0.0,0.0,54,0.00,,,0.00,Wunderground v.1.15,2013-05-04 08:35:00,
2013-05-04 04:40:00,50.1,34.5,30.26,ESE,112,0.0,0.0,55,0.00,,,0.00,Wunderground v.1.15,2013-05-04 08:40:00,
2013-05-04 04:46:00,49.9,34.8,30.26,ESE,112,0.0,0.0,56,0.00,,,0.00,Wunderground v.1.15,2013-05-04 08:46:00,
2013-05-04 04:51:00,49.9,34.8,30.26,ESE,112,0.0,0.0,56,0.00,,,0.00,Wunderground v.1.15,2013-05-04 08:51:00,
2013-05-04 04:57:00,49.9,34.4,30.26,ESE,111,0.0,0.0,55,0.00,,,0.00,Wunderground v.1.15,2013-05-04 08:57:00,
2013-05-04 05:02:00,50.0,34.5,30.26,ESE,111,0.0,0.0,55,0.00,,,0.00,Wunderground v.1.15,2013-05-04 09:02:00,
2013-05-04 05:08:00,49.9,34.8,30.26,ESE,105,0.0,0.0,56,0.00,,,0.00,Wunderground v.1.15,2013-05-04 09:08:00,
2013-05-04 05:13:00,49.9,34.4,30.26,ESE,105,0.0,0.0,55,0.00,,,0.00,Wunderground v.1.15,2013-05-04 09:13:00,
2013-05-04 05:18:00,49.9,34.8,30.26,ESE,105,0.0,0.0,56,0.00,,,0.00,Wunderground v.1.15,2013-05-04 09:18:00,
2013-05-04 05:24:00,49.8,34.3,30.26,ESE,112,0.0,1.0,55,0.00,,,0.00,Wunderground v.1.15,2013-05-04 09:24:00,
2013-05-04 05:30:00,49.9,33.9,30.26,ESE,112,0.0,1.0,54,0.00,,,0.00,Wunderground v.1.15,2013-05-04 09:30:00,
2013-05-04 05:36:00,50.0,34.0,30.26,ESE,111,0.0,1.0,54,0.00,,,0.00,Wunderground v.1.15,2013-05-04 09:36:00,
2013-05-04 05:41:00,49.9,33.9,30.26,ESE,109,0.0,1.0,54,0.00,,,0.00,Wunderground v.1.15,2013-05-04 09:41:00,
2013-05-04 05:47:00,49.9,33.9,30.26,ESE,114,1.0,1.0,54,0.00,,,0.00,Wunderground v.1.15,2013-05-04 09:47:00,
2013-05-04 05:53:00,49.7,34.2,30.27,ESE,109,0.0,1.0,55,0.00,,,0.00,Wunderground v.1.15,2013-05-04 09:53:00,
2013-05-04 05:58:00,49.3,34.7,30.27,ESE,109,0.0,1.0,57,0.00,,,0.00,Wunderground v.1.15,2013-05-04 09:58:00,
2013-05-04 06:03:00,48.9,34.8,30.27,ESE,108,0.0,1.0,58,0.00,,,0.00,Wunderground v.1.15,2013-05-04 10:03:00,
2013-05-04 06:09:00,48.6,34.5,30.27,ESE,110,0.0,1.0,58,0.00,,,0.00,Wunderground v.1.15,2013-05-04 10:09:00,
2013-05-04 06:15:00,49.0,34.4,30.27,ESE,117,1.0,1.0,57,0.00,,,0.00,Wunderground v.1.15,2013-05-04 10:15:00,
2013-05-04 06:21:00,49.8,34.3,30.27,ESE,118,1.0,1.0,55,0.00,,,0.00,Wunderground v.1.15,2013-05-04 10:21:00,
2013-05-04 06:26:00,50.3,34.3,30.27,ESE,109,1.0,1.0,54,0.00,,,0.00,Wunderground v.1.15,2013-05-04 10:26:00,
2013-05-04 06:32:00,50.7,34.2,30.27,ESE,108,1.0,1.0,53,0.00,,,0.00,Wunderground v.1.15,2013-05-04 10:32:00,
2013-05-04 06:37:00,50.9,35.3,30.27,NW,307,0.0,1.0,55,0.00,,,0.00,Wunderground v.1.15,2013-05-04 10:37:00,
2013-05-04 06:42:00,49.5,36.2,30.27,NW,304,0.0,0.0,60,0.00,,,0.00,Wunderground v.1.15,2013-05-04 10:42:00,
2013-05-04 06:48:00,49.1,36.6,30.27,NW,305,0.0,0.0,62,0.00,,,0.00,Wunderground v.1.15,2013-05-04 10:48:00,
2013-05-04 06:53:00,49.1,36.6,30.27,NW,304,0.0,0.0,62,0.00,,,0.00,Wunderground v.1.15,2013-05-04 10:53:00,
2013-05-04 06:59:00,49.0,36.9,30.28,NW,305,0.0,0.0,63,0.00,,,0.00,Wunderground v.1.15,2013-05-04 10:59:00,
2013-05-04 07:04:00,49.0,36.9,30.28,NW,305,0.0,0.0,63,0.00,,,0.00,Wunderground v.1.15,2013-05-04 11:04:00,
2013-05-04 07:10:00,49.3,37.2,30.28,NW,304,0.0,0.0,63,0.00,,,0.00,Wunderground v.1.15,2013-05-04 11:10:00,
2013-05-04 07:15:00,49.6,37.1,30.28,NW,305,0.0,0.0,62,0.00,,,0.00,Wunderground v.1.15,2013-05-04 11:15:00,
2013-05-04 07:21:00,50.5,37.5,30.28,NE,41,0.0,0.0,61,0.00,,,0.00,Wunderground v.1.15,2013-05-04 11:21:00,
2013-05-04 07:26:00,51.1,37.3,30.28,NE,41,0.0,0.0,59,0.00,,,0.00,Wunderground v.1.15,2013-05-04 11:26:00,
2013-05-04 07:32:00,51.4,37.5,30.28,NE,41,0.0,0.0,59,0.00,,,0.00,Wunderground v.1.15,2013-05-04 11:32:00,
2013-05-04 07:37:00,52.1,37.8,30.28,East,82,0.0,0.0,58,0.00,,,0.00,Wunderground v.1.15,2013-05-04 11:37:00,
2013-05-04 07:43:00,53.4,37.6,30.28,East,96,0.0,0.0,55,0.00,,,0.00,Wunderground v.1.15,2013-05-04 11:43:00,
2013-05-04 07:50:00,54.3,38.5,30.28,East,90,0.0,0.0,55,0.00,,,0.00,Wunderground v.1.15,2013-05-04 11:50:00,
2013-05-04 07:55:00,54.9,38.6,30.28,East,99,0.0,0.0,54,0.00,,,0.00,Wunderground v.1.15,2013-05-04 11:55:00,
2013-05-04 08:02:00,55.8,38.4,30.28,East,95,0.0,1.0,52,0.00,,,0.00,Wunderground v.1.15,2013-05-04 12:02:00,
2013-05-04 08:07:00,56.8,38.3,30.28,ESE,109,0.0,1.0,50,0.00,,,0.00,Wunderground v.1.15,2013-05-04 12:07:00,
2013-05-04 08:12:00,57.4,37.9,30.28,East,94,0.0,0.0,48,0.00,,,0.00,Wunderground v.1.15,2013-05-04 12:12:00,
2013-05-04 08:18:00,58.1,38.5,30.28,ESE,115,0.0,1.0,48,0.00,,,0.00,Wunderground v.1.15,2013-05-04 12:18:00,
2013-05-04 08:24:00,58.3,36.5,30.28,East,91,0.0,2.0,44,0.00,,,0.00,Wunderground v.1.15,2013-05-04 12:24:00,
2013-05-04 08:30:00,58.9,36.4,30.28,ENE,76,0.0,2.0,43,0.00,,,0.00,Wunderground v.1.15,2013-05-04 12:30:00,
2013-05-04 08:35:00,59.2,36.1,30.28,East,92,0.0,1.0,42,0.00,,,0.00,Wunderground v.1.15,2013-05-04 12:35:00,
2013-05-04 08:41:00,59.6,35.9,30.28,ESE,106,0.0,0.0,41,0.00,,,0.00,Wunderground v.1.15,2013-05-04 12:41:00,
2013-05-04 08:46:00,59.8,36.6,30.28,ENE,77,0.0,1.0,42,0.00,,,0.00,Wunderground v.1.15,2013-05-04 12:46:00,
2013-05-04 08:52:00,60.5,36.7,30.28,East,94,0.0,0.0,41,0.00,,,0.00,Wunderground v.1.15,2013-05-04 12:52:00,
2013-05-04 08:57:00,60.9,36.4,30.28,ESE,112,0.0,1.0,40,0.00,,,0.00,Wunderground v.1.15,2013-05-04 12:57:00,
2013-05-04 09:03:00,61.3,36.8,30.29,SW,218,0.0,0.0,40,0.00,,,0.00,Wunderground v.1.15,2013-05-04 13:03:00,
2013-05-04 09:04:00,61.4,36.2,30.28,East,82,0.0,0.0,39,0.00,,,0.00,Wunderground v.1.15,2013-05-04 13:04:00,
2013-05-04 09:09:00,61.6,37.0,30.28,East,85,1.0,2.0,40,0.00,,,0.00,Wunderground v.1.15,2013-05-04 13:09:00,
2013-05-04 09:15:00,62.0,36.7,30.28,East,79,1.0,2.0,39,0.00,,,0.00,Wunderground v.1.15,2013-05-04 13:15:00,
2013-05-04 09:20:00,62.1,37.5,30.28,ESE,104,1.0,3.0,40,0.00,,,0.00,Wunderground v.1.15,2013-05-04 13:20:00,
2013-05-04 09:26:00,62.0,37.4,30.28,ESE,112,2.0,4.0,40,0.00,,,0.00,Wunderground v.1.15,2013-05-04 13:26:00,
2013-05-04 09:31:00,62.3,37.0,30.28,ENE,71,1.0,2.0,39,0.00,,,0.00,Wunderground v.1.15,2013-05-04 13:31:00,
2013-05-04 09:37:00,62.4,36.4,30.28,East,86,1.0,2.0,38,0.00,,,0.00,Wunderground v.1.15,2013-05-04 13:37:00,
2013-05-04 09:43:00,62.8,36.8,30.28,WNW,283,1.0,1.0,38,0.00,,,0.00,Wunderground v.1.15,2013-05-04 13:43:00,
2013-05-04 09:49:00,62.9,38.2,30.28,NE,53,1.0,2.0,40,0.00,,,0.00,Wunderground v.1.15,2013-05-04 13:49:00,
2013-05-04 09:54:00,63.1,40.2,30.28,West,270,1.0,5.0,43,0.00,,,0.00,Wunderground v.1.15,2013-05-04 13:54:00,
2013-05-04 09:59:00,62.6,40.4,30.27,NW,321,3.0,12.0,44,0.00,,,0.00,Wunderground v.1.15,2013-05-04 13:59:00,
2013-05-04 10:04:00,62.5,39.7,30.27,WNW,297,5.0,8.0,43,0.00,,,0.00,Wunderground v.1.15,2013-05-04 14:04:00,
2013-05-04 10:10:00,62.6,38.6,30.28,NW,304,4.0,4.0,41,0.00,,,0.00,Wunderground v.1.15,2013-05-04 14:10:00,
2013-05-04 10:15:00,62.8,38.1,30.27,NW,307,2.0,4.0,40,0.00,,,0.00,Wunderground v.1.15,2013-05-04 14:15:00,
2013-05-04 10:21:00,63.2,39.7,30.27,NNE,18,2.0,2.0,42,0.00,,,0.00,Wunderground v.1.15,2013-05-04 14:21:00,
2013-05-04 10:27:00,64.3,40.7,30.27,NW,318,2.0,3.0,42,0.00,,,0.00,Wunderground v.1.15,2013-05-04 14:27:00,
2013-05-04 10:33:00,65.3,39.7,30.27,East,81,1.0,3.0,39,0.00,,,0.00,Wunderground v.1.15,2013-05-04 14:33:00,
2013-05-04 10:38:00,65.9,40.2,30.27,East,99,1.0,3.0,39,0.00,,,0.00,Wunderground v.1.15,2013-05-04 14:38:00,
2013-05-04 10:44:00,66.1,39.7,30.27,North,360,1.0,2.0,38,0.00,,,0.00,Wunderground v.1.15,2013-05-04 14:44:00,
2013-05-04 10:50:00,66.0,40.3,30.26,ENE,77,1.0,1.0,39,0.00,,,0.00,Wunderground v.1.15,2013-05-04 14:50:00,
2013-05-04 10:55:00,66.3,39.2,30.26,East,93,1.0,3.0,37,0.00,,,0.00,Wunderground v.1.15,2013-05-04 14:55:00,
2013-05-04 11:00:00,66.4,39.3,30.26,East,82,1.0,1.0,37,0.00,,,0.00,Wunderground v.1.15,2013-05-04 15:00:00,
2013-05-04 11:06:00,66.8,41.0,30.26,NE,44,1.0,4.0,39,0.00,,,0.00,Wunderground v.1.15,2013-05-04 15:06:00,
2013-05-04 11:12:00,67.0,41.2,30.26,ENE,68,1.0,2.0,39,0.00,,,0.00,Wunderground v.1.15,2013-05-04 15:12:00,
2013-05-04 11:17:00,67.7,41.2,30.26,NNW,335,1.0,2.0,38,0.00,,,0.00,Wunderground v.1.15,2013-05-04 15:17:00,
2013-05-04 11:23:00,68.4,41.8,30.25,SW,232,2.0,3.0,38,0.00,,,0.00,Wunderground v.1.15,2013-05-04 15:23:00,